Flag for Canada Weather past 2 weeks in Ottawa, Ontario, Canada

Now
43 °F

Passing clouds.


Feels Like: 37 °F
Forecast: 38 / 56 °F
Wind: 10 mph from North

Location: Ottawa Int'L. Ont.

Current Time: Oct 23, 2014 at 7:15:01 AM

Latest Report: Oct 23, 2014 at 6:00 AM


Visibility: 15 mi

Pressure: 30.15 "Hg

Humidity: 76%

Dew point: 36 °F

Location of OttawaLocation

Historic Weather in Ottawa — Graph

°F

Ottawa temperature yesterday

Maximum temperature yesterday: 54 °F (at 4:00 PM)
Minimum temperature yesterday: 41 °F (at 8:00 AM)
Average temperature yesterday: 47 °F

Past Weeks' High & Low Weather Summary

 TemperatureHumidityPressure
High77 °F (Oct 14, 1:00 PM)100% (Oct 8, 6:00 AM)30.30 "Hg (Oct 8, 6:00 AM)
Low28 °F (Oct 20, 3:00 AM)41% (Oct 12, 2:00 PM)29.44 "Hg (Oct 18, 4:00 AM)
Average50 °F81%29.92 "Hg
* Reported Oct 8 6:00 AM — Oct 23 6:00 AM, Ottawa, Weather by CustomWeather, © 2014

Note: Actual official high and low records may vary slightly from our data, if they occured in-between our weather recording intervals... More about our weather records

Advertising

Ottawa weather history for previous 24 hours

 ConditionsComfort  
Time TempWeatherWind HumidityBarometerVisibility
6:00 AM
Oct 23
43 °FPassing clouds.10 mph76%30.15 "Hg15 mi
5:00 AM43 °FPassing clouds.8 mph76%30.15 "Hg15 mi
4:00 AM43 °FPassing clouds.10 mph76%30.16 "Hg15 mi
3:00 AM43 °FClear.9 mph71%30.17 "Hg15 mi
2:00 AM43 °FClear.10 mph71%30.19 "Hg15 mi
1:00 AM45 °FClear.10 mph71%30.20 "Hg15 mi
12:00 AM45 °FClear.9 mph71%30.21 "Hg15 mi
11:00 PM
Oct 22
45 °FClear.8 mph76%30.22 "Hg15 mi
10:00 PM46 °FClear.10 mph71%30.24 "Hg15 mi
9:00 PM46 °FClear.8 mph76%30.25 "Hg15 mi
8:00 PM50 °FPassing clouds.9 mph71%30.24 "Hg15 mi
7:00 PM50 °FPartly sunny.6 mph76%30.25 "Hg15 mi
6:00 PM52 °FPassing clouds.5 mph72%30.24 "Hg15 mi
5:00 PM54 °FScattered clouds.10 mph67%30.25 "Hg15 mi
4:00 PM54 °FScattered clouds.14 mph67%30.25 "Hg15 mi
3:00 PM52 °FPartly sunny.17 mph67%30.25 "Hg15 mi
2:00 PM52 °FBroken clouds.13 mph67%30.28 "Hg15 mi
1:00 PM50 °FPartly sunny.13 mph67%30.29 "Hg15 mi
12:00 PM48 °FPartly sunny.16 mph66%30.30 "Hg15 mi
11:00 AM48 °FBroken clouds.14 mph66%30.30 "Hg15 mi
10:00 AM45 °FPartly sunny.13 mph66%30.29 "Hg15 mi
9:00 AM43 °FPartly sunny.10 mph71%30.29 "Hg15 mi
8:00 AM41 °FPassing clouds.8 mph76%30.27 "Hg15 mi
7:00 AM43 °FOvercast.12 mph66%30.24 "Hg15 mi
Weather by CustomWeather, © 2014

See weather overviewHow to use our weather pages